This is the latest recevied weather packets stored in our database for station/object VE2JJ-13. If no packets are shown the sender has not sent any weather packets the latest 10 day(s).
| Time | Temp. | Humidity | Pressure | Rain* | Wind** | Luminosity | Snow |
|---|---|---|---|---|---|---|---|
| 1777533730 | 11.67° C | 95% | 996.8 hPa | 2.54 mm | - | - | - |
| 1777533430 | 11.67° C | 95% | 996.8 hPa | 2.54 mm | - | - | - |
| 1777533133 | 11.67° C | 95% | 996.9 hPa | 2.54 mm | - | - | - |
| 1777532829 | 11.67° C | 95% | 996.9 hPa | 2.79 mm | - | - | - |
| 1777532499 | 11.67° C | 94% | 997.1 hPa | 2.79 mm | - | - | - |
| 1777532203 | 11.67° C | 94% | 997.1 hPa | 2.54 mm | - | - | - |
| 1777531901 | 11.67° C | 94% | 997.1 hPa | 2.54 mm | - | - | - |
| 1777531602 | 11.67° C | 94% | 997.1 hPa | 2.79 mm | - | - | - |
| 1777531301 | 11.67° C | 94% | 997.1 hPa | 2.54 mm | - | - | - |
| 1777530970 | 11.67° C | 94% | 997.3 hPa | 2.54 mm | - | - | - |
| 1777530669 | 11.67° C | 93% | 997.3 hPa | 2.29 mm | - | - | - |
| 1777530342 | 11.67° C | 93% | 997.3 hPa | 2.03 mm | - | - | - |
| 1777530039 | 11.67° C | 93% | 997.3 hPa | 2.03 mm | - | - | - |
| 1777529739 | 11.67° C | 92% | 997.5 hPa | 1.78 mm | - | - | - |
| 1777529439 | 11.67° C | 92% | 997.5 hPa | 1.52 mm | - | - | - |
| 1777529144 | 11.67° C | 92% | 997.5 hPa | 1.52 mm | - | - | - |
| 1777528812 | 12.22° C | 91% | 997.7 hPa | 1.27 mm | - | - | - |
| 1777528565 | 12.22° C | 91% | 997.7 hPa | 1.52 mm | - | - | - |
| 1777528511 | 12.22° C | 91% | 997.7 hPa | 1.52 mm | - | - | - |
| 1777528179 | 12.22° C | 91% | 998 hPa | 1.52 mm | - | - | - |
| 1777527849 | 12.22° C | 91% | 998 hPa | 1.27 mm | - | - | - |
| 1777527555 | 12.22° C | 92% | 997.8 hPa | 1.52 mm | - | - | - |
| 1777527220 | 12.22° C | 93% | 997.8 hPa | 1.52 mm | - | - | - |
| 1777526920 | 12.22° C | 93% | 997.9 hPa | 1.27 mm | - | - | - |
| 1777526708 | 12.22° C | 93% | 998 hPa | 1.27 mm | - | - | - |
* Rain latest hour (hover to see other rain measurements)
** Current wind speed in m/s (hover to see current wind gust speed)